Regional Weather Roundup
Issued by NWS Newport/Morehead, NC

Current Version | Previous Version | Graphics & Text | Print | Product List | Glossary Off
Versions: 1 2 3 4 5 6 7 8 9 10 11 12 13 14 15 16 17 18 19 20 21 22 23 24 25 26 27 28 29 30 31 32 33 34 35 36 37 38 39 40 41 42 43 44 45 46 47 48 49 50

000
ASUS42 KMHX 011610
RWRMHX
WEATHER ROUNDUP FOR EASTERN NORTH CAROLINA
NATIONAL WEATHER SERVICE NEWPORT/MOREHEAD CITY NC
1100 AM EST SUN FEB 01 2015

NOTE: "FAIR" INDICATES FEW OR NO CLOUDS BELOW 12,000 FEET
WITH NO SIGNIFICANT WEATHER AND/OR OBSTRUCTIONS TO VISIBILITY

NCZ015>017-031-032-045>047-102-103-011700-
NORTH COAST

CITY           SKY/WX    TMP DP  RH WIND       PRES   REMARKS
EDENTON        CLOUDY    42  22  46 CALM      30.30S
ELIZABETH CITY CLOUDY    38  21  50 SW3       30.31F
KITTY HAWK     CLOUDY    40  26  57 W5        30.29F
MANTEO         CLOUDY    41  21  45 NW3       30.30F

$$

NCZ045>047-081-094-103-104-011700-
CENTRAL COAST

CITY           SKY/WX    TMP DP  RH WIND       PRES   REMARKS
FRISCO         CLOUDY    50  27  40 VRB6      30.30F
SWANQUARTER      N/A     45 N/A N/A SW6       30.27S

$$

NCZ095-097-098-100-101-011700-
SOUTHERN COAST

CITY           SKY/WX    TMP DP  RH WIND       PRES   REMARKS
BEAUFORT       MOSUNNY   49  34  56 W8        30.33R
CEDAR ISLAND     N/A     50 N/A N/A S13       30.36R
JACKSONVILLE   CLOUDY    49  23  36 SW5       30.32F
PINEY ISLAND     N/A    N/A N/A N/A MISG      30.31F
WILMINGTON     CLOUDY    51  34  52 S5        30.32S


$$

NCZ011>013-027>030-043-044-078>080-089-090>093-098-011700-
COASTAL PLAIN

CITY           SKY/WX    TMP DP  RH WIND       PRES   REMARKS
AHOSKIE        MOSUNNY   43  21  41 CALM      30.29F
CLINTON        CLOUDY    46  31  54 CALM      30.29F
ELIZABETHTOWN  CLOUDY    49  27  42 S5        30.30F
GOLDSBORO      CLOUDY    50  27  42 SW9       30.27F
GREENVILLE     MOSUNNY   50  25  37 SW8       30.29F
HAVELOCK       PTSUNNY   53  23  31 W13       30.34R
KENANSVILLE    CLOUDY    47  26  43 S3        30.30F
KINSTON        MOSUNNY   52  25  35 SW10      30.30F
NEW BERN       MOSUNNY   53  22  29 W8        30.32F
RICHLANDS      PTSUNNY   48  25  40 SW6       30.31F
ROCKY MOUNT    MOSUNNY   48  24  39 SE3       30.26F
WASHINGTON     MOSUNNY   48  25  39 SW8       30.29F
WHITEVILLE     PTSUNNY   53  28  38 SE7       30.29F

$$

AMZ130-135-150-152-154-156-158-170-250-252-270-ANZ085-086-088-633-658-670-011700-
MARINE OBSERVATIONS

STATION/POSITION TIME  TEMP    WIND        PRES    WAVE   SWELL
                       AIR SEA DIR/SP/G            HT/PER HT/PER
                 (UTC) (F)     (DEG/KT/KT) (MB)    (FT/S) (FT/S)
CHESAPEAKE LIGHT 1500   39      90/ 13/ 14 1026.8
64 E VA BEACH    1600   43 48   60/  6/ 10 1025.5    3/ 6   3/ 6
DUCK             1600   40 40   CALM  /  1 1025.0
2 E DUCK         1600      40                N/A     2/ 7
10 NE DUCK       1600      43                N/A     3/ 8
OREGON INLET     1600   39 36  220/  4/  4 1026.1
13E OREGON INLT  1600      42                N/A     4/11   2/11
HATTERAS CG      1600   47 47  260/  7/ 10 1026.3
DIAMOND BUOY     1600   52 71  270/ 12/ 16 1026.3    6/10   7/10
17 S OCRACOKE    NOT AVBL
CAPE LOOKOUT     1500   49     320/  3/  3 1026.2
BEAUFORT LAB     1600   49 45  260/  5/  9 1026.2
27 SE WRIGHTSVLE NOT AVBL
5 SE WRIGHTSVLE  1500   50 51  230/  6/  6 1027.1
225 S CAPE HAT   1458   59 70   30/  2/  6 1028.6    8/11   8/11
41 SE CHARLESTON 1600   61 70  180/  6/ 10 1026.1    4/11   3/11

$$


USA.gov is the U.S. government's official web portal to all federal, state and local government web resources and services.